Regional Weather Roundup
Issued by NWS Austin/San Antonio, TX

Home | Current Version | Previous Version | Text Only | Print | Product List | Glossary On
Versions: 1 2 3 4 5 6 7 8 9 10 11 12 13 14 15 16 17 18 19 20 21 22 23 24 25 26 27 28 29 30 31 32 33 34 35 36 37 38 39 40 41 42 43 44 45 46 47 48 49 50
000
ASUS44 KEWX 211511
RWREWX
SOUTH TEXAS REGIONAL WEATHER ROUNDUP
NATIONAL WEATHER SERVICE AUSTIN/SAN ANTONIO TX
1000 AM CDT MON OCT 21 2019

NOTE: "FAIR" INDICATED FEW OR NO CLOUDS BELOW 12,000 FEET WITH NO
SIGNIFICANT WEATHER AND/OR OBSTRUCTIONS TO VISIBILITY.

* - THESE STATIONS ARE NOT NWS OR FAA STATIONS...AND ARE NOT SUBJECT
    TO NWS AND FAA QUALITY CONTROL.

TXZ171-172-183>190-211600-
TEXAS HILL COUNTRY AND EDWARDS PLATEAU

CITY           SKY/WX    TMP DP  RH WIND       PRES   REMARKS
JUNCTION       SUNNY     63  45  51 VRB3      29.99R
*LLANO         SUNNY     64  37  36 N12G17    29.99R
BURNET         SUNNY     63  38  39 N12       29.95R
*HORSESHOE BAY SUNNY     64  43  45 N8        29.95R
*KERRVILLE     SUNNY     65  37  36 N9G18     29.95R
*FREDERICKSBRG SUNNY     64  37  36 NE12G17   29.96R
*ROCKSPRINGS   SUNNY     61  36  39 NE12G17   30.02R
*BOERNE        SUNNY     64  41  42 N13G21    29.94R
*CASTROVILLE   SUNNY     73  38  28 NE16G22   29.92R
HONDO          SUNNY     73  44  35 NE15      29.90R
*UVALDE        SUNNY     71  44  38 NE10      29.91S
DEL RIO        SUNNY     72  27  18 NW9       29.96R
LAUGHLIN AFB   SUNNY     70  33  25 NW12      29.95R
SPOFFORD       SUNNY     72  36  27 NW15      29.89R
*EAGLE PASS    SUNNY     73  32  21 NW16      29.93R
CARRIZO SPRGS  SUNNY     75  52  43 N12G20    29.89R
*FAITH RANCH   MOSUNNY   77  55  47 N16G24    29.90R
$$

TXZ173-191>194-202-209-217>225-228-211600-
CENTRAL AND SOUTH CENTRAL TEXAS

CITY           SKY/WX    TMP DP  RH WIND       PRES   REMARKS
GEORGETOWN     SUNNY     66  46  48 N14       29.94R
AUSTIN/BERGSTM MOSUNNY   71  45  39 N16       29.91R
AUSTIN/MABRY   SUNNY     69  44  40 N10G18    29.93R
*AUSTIN/EXEC   SUNNY     66  41  39 N16G23    29.92R
*LAGO VISTA    SUNNY     61  47  60 NE9G21    29.93R
SAN MARCOS     SUNNY     70  47  43 N24G30    29.91R
NEW BRAUNFELS  SUNNY     71  44  37 N23G30    29.88R
RANDOLPH AFB   SUNNY     71  43  36 N21G31    29.89R
SEGUIN         SUNNY     70  45  40 N16G24    29.93R
KELLY FIELD    SUNNY     72  45  36 NE17G26   29.87R
SAN ANTONIO    MOSUNNY   70  45  40 N14G22    29.90R
STINSON FIELD  SUNNY     72  48  42 N16G23    29.87R
PLEASANTON     SUNNY     71  56  57 NE14G23   29.89R
*LA GRANGE     SUNNY     70  55  59 N10G22    29.86R
*GIDDINGS      SUNNY     70  50  48 N17G25    29.89R
*GONZALES      MOSUNNY   71  56  60 N12G17    29.87R
$$

TXZ163>164-176>182-195>201-210>213-226-227-235-211600-
SOUTHEAST TEXAS

CITY           SKY/WX    TMP DP  RH WIND       PRES   REMARKS
COLLEGE STN    SUNNY     70  53  54 N17G26    29.87R
*BRYAN         SUNNY     68  55  63 N15G21    29.90R
*CALDWELL      SUNNY     66  49  53 N14G23    29.90R
*CROCKETT      SUNNY     63  55  77 N7        29.90R
*BRENHAM       SUNNY     70  60  72 N12G20    29.88R
HUNTSVILLE     SUNNY     65  62  90 N7        29.86R
CONROE         PTSUNNY   67  64  90 N5        29.86R
HOUSTON BUSH   CLOUDY    69  64  84 N8        29.83R
HOUSTON HOBBY  LGT RAIN  69  63  81 NE7       29.84R
*HOUSTON SW AP FAIR      67  67 100 N3        29.83F
PEARLAND       LGT RAIN  69  66  90 NE5       29.84S
HOUSTON HOOKS  FAIR      67  62  84 N7        29.84R
ELLINGTON FLD  CLOUDY    68  64  88 NW3       29.82
SUGAR LAND     FAIR      70  67  90 N9        29.84R
*HOUSTON EXEC  FAIR      68  64  88 N12       29.85R
*CLEVELAND MUN LGT RAIN  66  66 100 CALM      29.85S
*WHARTON       MOSUNNY   70  65  84 N10G16    29.85R
*COLUMBUS      PTSUNNY   67  58  74 N8        29.86R
*EAGLE LAKE    MOSUNNY   70  67  90 N7        29.86R
$$

TXZ214>216-236>238-211600-
THE UPPER TEXAS COAST

CITY           SKY/WX    TMP DP  RH WIND       PRES   REMARKS
*ORANGE        HVY RAIN  68  68 100 CALM      29.87R
PORT ARTHUR    RAIN      69  68  96 NW7       29.86R FOG
GALVESTON      LGT RAIN  70  68  93 N20       29.80F FOG
ANGLETON       RAIN      67  65  93 E5        29.83S FOG
*BAY CITY      MOSUNNY   70  68  96 N7        29.83S
PALACIOS       PTSUNNY   69  65  86 NE7       29.84R
$$

TXZ229>234-239>247-211600-
TEXAS COASTAL BEND AND RIO GRANDE PLAINS

CITY           SKY/WX    TMP DP  RH WIND       PRES   REMARKS
VICTORIA       SUNNY     72  67  84 N6        29.85R
*BEEVILLE      PTSUNNY   79  63  58 NE14G21   29.83R
ROCKPORT       LGT RAIN  71  64  78 NE12      29.84R
*PORT ARANSAS  PTSUNNY   80  76  87 W8        29.82R
*PORT LAVACA   PTSUNNY   71  69  91 E7        29.85R
*INGLESIDE     CLOUDY    78  75  91 N12       29.82R
CORPUS CHRISTI PTSUNNY   83  76  79 W7        29.80R HX  91
CORPUS NAS     PTSUNNY   80  77  90 W7        29.80R
*ROBSTOWN      PTSUNNY   82  73  75 NW10      29.81R
ALICE          PTSUNNY   82  74  76 N12       29.82R
KINGSVILLE NAS PTSUNNY   84  75  74 NW6       29.80S HX  92
COTULLA        MOSUNNY   75  58  55 N13G20    29.87R
LAREDO         CLOUDY    80  74  81 N14       29.84R
$$

TXZ248>255-211600-
DEEP SOUTH TEXAS

CITY           SKY/WX    TMP DP  RH WIND       PRES   REMARKS
BROWNSVILLE    FAIR      83  79  88 S13       29.75R HX  94
PORT ISABEL    FAIR      83  79  88 S12       29.74R FOG     HX  94
HARLINGEN      PTSUNNY   83  80  91 SW10      29.76R HX  95
*HEBBRONVILLE  MOSUNNY   80  73  79 CALM      29.84R
MCALLEN        PTSUNNY   81  77  88 NW6       29.79R FOG
*WESLACO       CLOUDY    82  78  88 W6        29.77  FOG     HX  90
FALFURRIAS     CLOUDY    81  74  79 N5        29.81R
EDINBURG       CLOUDY    78  75  90 N8        29.79R FOG
*ZAPATA        NOT AVBL
$$

TXZ213>215-236>238-242>244-246-247-251-254-255-211600-
CMAN STATIONS

STATION/POSITION TIME  TEMP    WIND        PRES    WAVE
                       AIR SEA DIR/SP/G            HT/PER
                 (UTC) (F)     (DEG/KT/KT) (MB)    (FT/S)
SABINE PASS      1424   70 78  300/ 12/ 19 1012.7
SEA RIM ST PARK  1500   68     360/ 10/ 12 1010.4
NORTH JETTY/GLS  1424   67 77  340/ 19/ 26 1008.7
EAGLE POINT      1424   67 76  340/  5/  9 1009.8
MORGANS POINT    1424   68 77   10/  3/  6 1010.0
PORT O`CONNOR    1418   67 80   30/ 20/ 24 1009.8
PORT ARANSAS     1500   78 79  290/ 12/ 14 1009.3
MALAQUITE BEACH  1418   80 81  270/  7/  8 1008.6
BAFFIN BAY       1418   77 80  320/  9/ 11 1009.1
PORT ISABEL      1418   81 81  180/  8/ 10 1007.5
$$



USA.gov is the U.S. government's official web portal to all federal, state and local government web resources and services.